EHI
9 12 9 5 3 1 0 0 0 0 0 0 0 0 0 0 0 0 0 1 2 2 1 0 0 0 0 1 1 1 0 0 0 0 0 0 1 3 3 2 1 0 0 0 1 2 2 1 1
9 11 8 4 1 0 0 0 0 0 0 0 0 0 0 0 0 0 0 1 2 2 1 0 0 0 0 0 0 0 0 0 0 0 0 0 1 2 2 1 0 0 0 0 1 2 2 2 2
9 8 5 2 0 0 0 0 0 0 0 0 0 0 0 0 0 0 1 2 2 1 0 0 0 0 0 0 0 0 0 0 0 0 0 0 0 0 0 0 0 0 0 0 0 1 1 2 1
7 6 3 0 0 0 0 0 0 0 0 0 0 0 1 1 0 0 1 2 2 1 0 0 0 0 0 0 0 0 0 0 0 0 0 0 0 0 0 0 0 0 0 0 0 0 0 0 0
7 5 1 0 0 0 0 0 0 0 0 0 0 0 1 1 0 0 1 1 1 0 0 0 0 0 0 0 0 0 0 0 0 0 0 0 0 0 0 0 0 0 0 0 0 0 0 0 0
9 5 1 0 0 0 0 0 0 0 0 0 0 0 0 0 0 0 0 0 0 0 0 0 0 0 0 0 0 0 0 0 0 0 0 0 0 0 0 0 0 0 0 0 0 0 0 0 0
6 4 1 0 0 0 0 0 0 0 0 0 0 0 0 0 1 0 0 0 0 0 0 0 0 0 0 0 0 0 0 0 0 0 0 0 0 0 0 0 0 0 0 0 0 0 0 0 0
3 2 1 0 0 0 0 0 0 0 0 0 0 0 0 0 0 0 0 0 0 0 0 0 0 0 0 0 0 0 0 0 0 0 0 0 0 0 0 0 0 0 0 0 0 0 0 0 0
1 1 0 0 0 0 0 0 0 0 0 0 0 0 0 0 0 0 0 0 0 0 0 0 0 0 0 0 0 0 0 0 0 0 0 0 0 0 0 0 0 0 0 0 0 1 1 1 1
0 0 0 0 0 0 0 0 0 0 0 0 0 0 0 0 0 0 0 0 0 0 0 0 0 0 0 0 0 0 0 0 0 0 0 0 0 0 0 0 0 0 0 0 0 1 2 2 1
0 0 0 0 0 0 0 0 0 0 1 1 0 0 0 0 0 0 0 0 0 0 0 0 0 0 0 0 0 0 0 0 0 0 0 0 0 0 0 0 0 0 0 0 0 1 1 1 0
0 0 0 0 0 0 0 0 0 0 1 1 0 0 0 0 0 0 0 0 0 0 0 0 0 0 0 0 0 0 0 0 0 0 0 0 0 0 0 0 0 0 0 0 0 0 0 0 0
0 0 0 0 0 0 0 0 0 0 1 1 0 0 0 0 0 0 0 0 0 0 0 0 0 0 0 0 0 0 0 0 0 0 0 0 0 0 0 0 0 0 0 0 0 0 0 1 1
0 0 0 1 0 0 0 0 0 0 0 0 0 0 0 0 0 0 0 0 0 0 0 0 0 0 0 0 0 0 0 0 0 0 0 0 0 0 0 0 0 0 0 0 0 0 0 0 0
0 0 0 0 0 0 0 0 1 1 1 0 0 0 0 0 0 0 0 0 0 0 0 0 0 0 0 0 0 0 0 0 0 0 0 0 0 0 0 0 0 0 0 0 0 0 0 0 0
0 0 0 0 0 0 0 0 1 1 1 0 0 0 0 0 0 0 0 0 0 0 0 0 0 0 0 0 0 0 0 0 0 0 0 0 0 0 0 0 0 0 0 0 0 0 0 0 0
0 0 0 0 0 0 0 0 0 0 0 0 0 0 0 0 0 0 0 0 0 0 0 0 0 0 0 0 0 0 0 0 0 0 0 0 0 0 0 0 0 0 0 0 0 0 0 0 0
0 0 0 0 0 0 0 0 0 0 1 1 1 0 0 0 0 0 0 0 0 0 0 0 0 0 0 0 0 0 0 0 0 0 0 0 0 0 0 0 0 0 0 0 0 0 0 0 0
0 0 0 0 0 0 0 0 0 1 1 2 1 0 0 0 0 0 0 0 0 0 0 0 0 0 0 0 0 0 0 0 0 0 0 0 0 0 0 0 0 0 0 0 0 0 0 0 0
0 0 0 0 0 0 0 0 0 0 1 2 2 1 0 0 0 0 0 0 0 0 0 0 0 0 0 0 0 0 0 0 0 0 0 0 0 0 0 0 0 0 0 0 0 0 0 0 0
0 0 0 0 0 0 0 0 0 0 1 2 2 1 0 0 0 0 0 0 0 0 0 0 0 0 0 0 0 0 0 0 0 0 0 0 0 0 0 0 0 0 0 0 0 0 0 0 0
0 0 0 0 0 0 0 0 0 0 0 1 1 1 1 1 0 0 0 0 0 0 0 0 0 0 0 0 0 0 0 0 0 0 0 0 0 0 0 0 0 0 0 0 0 0 0 0 0
0 0 0 0 0 0 0 0 0 0 0 0 0 1 2 2 1 0 0 0 0 0 0 0 0 0 0 0 0 0 0 0 0 0 0 0 0 0 0 0 0 0 0 0 0 0 0 0 0
0 0 0 0 0 0 0 0 0 0 0 0 0 1 3 2 1 0 1 2 1 1 0 1 1 0 0 0 0 0 0 0 0 0 0 0 0 0 0 0 0 0 0 0 0 0 0 0 0
0 0 0 0 0 0 0 0 0 0 0 0 0 2 3 2 1 1 3 3 3 2 2 2 2 1 0 0 0 0 0 0 0 0 0 0 0 0 0 0 0 0 0 0 0 0 0 0 0
0 0 0 0 0 0 0 0 0 0 0 0 0 2 3 2 1 2 3 4 3 3 3 3 2 1 0 0 0 0 0 0 0 0 0 0 0 0 0 0 0 0 0 0 0 0 0 0 0
0 0 0 0 0 0 0 0 0 0 0 0 1 3 5 4 3 3 4 4 3 3 3 3 2 1 0 0 0 0 0 0 0 0 0 0 0 0 0 0 0 0 0 0 0 0 0 0 0
0 0 0 0 0 0 0 0 0 0 0 1 2 4 6 7 6 4 4 4 3 3 3 3 1 0 0 0 0 0 0 0 0 0 0 0 0 0 0 0 0 0 0 0 0 0 0 0 0
0 0 0 0 0 0 0 0 0 0 1 2 3 4 5 8 7 6 5 5 4 3 3 2 1 0 0 0 0 0 0 0 0 0 0 0 0 0 0 0 0 0 0 0 0 0 0 0 0
0 0 0 0 0 0 0 0 0 0 1 2 3 3 4 7 9 7 7 6 4 3 3 2 1 0 0 0 0 0 0 0 0 0 0 0 0 0 0 0 0 0 0 0 0 0 0 0 0
Wind_Speed
10 9 5 2 2 2 1 4 6 6 7 9 10 11 14 13 10 10 3 6 11 12 12 12 12 13 13 13 13 12 12 12 12 11 11 11 10 10 10 9 9 9 8 8 8 8 7 7 7
9 7 4 2 2 0 3 5 8 9 7 7 10 13 13 12 12 9 5 8 13 13 12 12 13 13 13 13 13 13 12 12 11 11 11 10 10 9 9 8 8 8 8 8 7 7 7 7 6
10 7 3 2 2 1 4 6 8 8 6 7 10 12 10 8 9 6 6 11 13 14 12 12 14 14 14 13 13 13 12 11 11 10 9 9 9 8 8 8 7 7 7 7 7 7 6 6 5
5 3 3 2 2 5 7 7 7 8 7 9 11 10 9 9 8 9 11 13 15 14 13 12 14 14 14 13 13 12 11 11 10 9 9 8 8 8 7 7 7 7 7 7 7 6 5 5 5
4 3 3 0 3 7 7 6 7 7 9 12 14 12 11 10 11 11 11 13 14 14 13 12 14 14 13 13 12 12 11 10 9 8 8 7 7 6 6 6 6 7 7 7 6 5 5 5 4
3 3 2 1 5 7 7 6 9 10 11 12 14 13 9 7 9 10 11 11 13 13 13 12 13 13 13 12 11 10 9 9 8 7 6 5 4 5 5 6 7 7 7 6 6 5 4 4 4
3 4 3 2 4 5 7 7 8 8 9 9 11 11 9 7 7 9 10 9 10 11 11 11 10 10 11 11 10 9 7 6 5 4 3 2 2 3 4 6 6 6 6 6 5 4 3 3 3
3 4 3 2 4 5 7 7 6 9 7 8 10 10 10 8 8 9 9 8 8 8 8 8 9 9 8 8 8 7 6 4 3 2 1 2 2 3 3 6 5 5 4 4 4 3 3 4 4
5 3 2 2 4 6 7 7 6 8 9 10 12 14 13 12 9 8 8 7 6 7 6 6 6 6 7 7 8 7 6 3 3 3 4 4 2 3 3 6 3 1 1 2 3 4 5 6 6
3 2 1 2 4 6 6 6 6 8 11 14 16 16 14 11 9 8 8 8 7 7 6 6 6 5 5 4 5 3 3 2 1 1 0 1 2 2 3 5 3 3 3 4 6 7 7 6 3
2 0 1 4 6 7 6 6 6 8 9 13 16 16 13 11 8 7 7 7 6 6 5 5 5 5 5 3 3 1 1 2 2 3 2 2 2 1 2 1 2 2 2 2 3 4 3 2 1
1 1 1 3 5 5 6 6 7 8 8 13 15 14 12 10 8 8 8 7 6 6 5 4 4 5 6 4 2 2 2 3 3 3 4 3 2 2 2 2 2 2 1 2 2 2 3 3 2
1 0 2 3 3 3 8 9 8 9 11 15 15 13 11 9 7 8 8 8 7 6 5 5 4 6 6 3 1 5 4 3 3 2 3 3 2 3 2 2 2 3 2 2 3 3 4 4 4
1 2 3 3 4 4 8 8 7 9 12 14 14 11 10 8 8 7 7 8 7 6 7 5 4 5 5 4 3 4 3 2 3 3 3 4 3 3 3 3 3 3 2 2 2 3 3 2 3
2 3 3 2 4 4 6 7 8 9 12 13 12 10 10 8 7 7 6 6 7 7 8 5 6 6 7 6 5 4 4 4 3 3 4 5 4 5 4 4 3 3 3 4 3 4 3 3 3
5 5 4 4 4 5 5 6 7 7 10 11 11 10 8 7 8 7 6 6 7 8 8 5 6 7 7 5 4 4 4 4 4 4 5 7 6 5 4 3 3 4 4 3 3 4 3 4 3
7 7 7 6 5 5 5 6 8 8 8 9 10 11 9 8 8 7 6 6 6 7 8 7 6 6 6 5 4 4 4 3 4 5 4 5 6 6 4 3 4 4 3 4 4 4 3 3 3
8 9 8 8 7 6 6 7 9 9 9 9 9 10 10 9 9 8 7 6 6 6 8 8 6 6 5 3 4 3 4 4 4 4 4 5 5 6 5 4 5 4 3 3 4 4 3 3 3
6 5 5 5 6 6 6 8 10 9 9 9 9 10 10 9 10 9 7 7 6 6 7 8 6 5 3 2 3 3 3 3 3 3 3 4 5 5 4 4 4 4 4 5 5 4 4 4 3
6 5 4 4 5 4 5 6 8 10 10 10 10 10 10 10 10 9 8 7 7 6 6 7 6 5 5 2 3 3 3 3 3 2 3 5 5 6 5 4 3 4 4 5 5 4 4 3 3
6 5 4 5 5 5 5 4 7 9 9 9 10 9 10 11 13 11 9 8 7 5 5 7 7 6 5 4 3 3 3 2 2 2 3 4 4 5 5 5 4 4 4 3 4 4 4 3 3
5 5 6 6 5 3 6 4 7 9 8 9 10 10 10 10 12 11 9 8 7 6 5 7 7 6 6 4 3 3 3 2 2 2 2 3 3 3 4 4 5 5 4 5 5 5 4 4 3
3 2 3 5 4 4 7 5 6 10 12 13 12 11 10 11 11 11 10 9 7 6 5 5 6 7 5 5 4 2 2 2 2 3 3 3 3 3 4 4 4 4 4 4 4 4 5 4 4
4 3 2 4 3 7 10 8 6 10 15 16 14 13 11 11 11 10 9 8 7 6 5 5 6 6 5 4 4 3 3 2 3 2 2 2 2 2 3 3 4 4 4 4 4 3 4 4 4
7 5 3 5 5 6 9 8 6 10 15 16 15 15 12 11 11 11 10 9 8 8 7 6 6 6 5 4 3 4 3 2 3 2 2 2 2 2 3 3 3 4 3 4 4 4 4 4 4
10 9 5 3 4 3 7 7 5 8 11 12 14 14 14 13 11 12 11 9 9 8 7 7 7 6 5 4 3 3 3 2 3 2 2 3 2 3 3 4 4 4 4 4 4 4 4 4 5
8 9 6 3 5 3 5 5 4 6 9 11 12 14 15 14 13 13 12 10 9 9 7 7 7 6 5 4 3 3 3 3 3 2 3 3 3 3 4 3 4 4 4 5 4 4 4 5 5
7 6 4 4 3 4 6 8 7 11 11 11 12 13 14 14 14 13 12 11 10 9 7 7 7 7 6 5 4 3 3 4 4 3 3 2 3 3 3 2 4 3 3 4 5 4 3 3 3
10 9 7 4 5 3 2 2 2 10 11 12 12 12 14 14 14 12 11 11 10 10 8 7 7 6 6 5 4 4 3 4 4 3 3 2 2 3 3 2 3 4 4 4 4 3 4 4 4
10 10 8 5 5 4 2 2 4 5 9 10 11 11 12 13 12 12 12 11 10 10 9 8 7 7 6 6 5 5 4 4 4 4 2 1 1 2 3 3 3 4 4 4 3 3 3 4 4
Wind_Direction
288 273 264 257 257 238 51 65 79 65 60 54 53 66 68 56 65 93 128 101 102 100 99 91 86 86 86 85 84 83 83 82 82 80 79 77 74 72 70 63 58 55 55 55 51 46 41 40 41
286 289 282 245 269 324 69 74 76 69 74 74 66 71 73 72 80 96 105 96 97 93 87 87 88 87 86 85 85 84 83 83 81 80 78 76 73 70 68 61 54 51 49 48 46 43 36 34 35
272 268 269 252 292 43 89 84 88 85 78 76 71 59 55 70 81 100 115 102 95 93 90 89 89 88 87 85 84 84 83 82 80 80 78 75 72 68 63 57 50 46 44 43 40 37 31 29 27
277 270 248 258 32 67 97 106 104 96 79 75 81 68 64 68 96 119 118 108 100 98 96 93 92 90 88 86 84 83 81 78 75 74 74 71 68 64 57 52 44 39 37 35 34 29 26 22 17
264 259 262 289 83 89 94 100 100 88 76 75 82 90 85 85 105 111 108 104 104 104 104 102 98 94 90 86 83 80 78 75 72 68 66 64 62 58 53 48 43 39 35 31 30 25 19 16 9
286 267 271 87 99 98 101 99 87 86 93 97 99 101 98 105 104 101 99 100 107 112 113 113 110 105 99 93 86 81 78 73 68 64 62 63 66 66 61 53 45 38 30 26 23 19 13 7 358
284 291 279 109 108 100 93 84 89 95 95 97 107 107 113 111 105 103 100 102 111 120 126 129 131 121 112 105 99 93 87 81 77 76 77 82 111 109 92 73 53 39 31 27 22 10 359 346 330
287 294 297 93 116 99 97 93 89 98 100 115 119 116 125 124 114 110 111 113 114 116 121 128 134 135 135 129 123 123 118 112 117 139 200 217 211 182 138 90 67 45 30 17 4 342 319 303 289
278 279 323 58 102 112 114 107 102 103 102 86 88 109 123 130 127 129 126 124 122 122 127 126 124 130 137 141 140 156 153 162 180 206 245 248 196 179 149 94 108 66 2 323 303 292 286 281 265
251 306 14 60 106 123 125 119 115 112 103 98 100 111 127 138 145 142 140 139 137 131 128 127 127 126 116 103 130 155 144 147 145 98 39 346 57 59 75 127 177 231 259 270 266 271 276 267 244
262 315 14 67 93 118 122 114 106 109 115 122 126 132 141 145 148 136 124 112 110 109 105 111 114 113 109 95 92 84 93 98 61 22 46 32 32 40 84 146 189 243 253 295 274 269 262 251 213
284 25 40 81 90 121 120 104 96 99 121 128 130 137 141 147 145 132 116 108 106 101 94 84 94 95 80 72 82 85 55 63 53 10 42 39 28 18 35 52 10 3 17 357 335 324 339 355 17
219 183 110 109 125 115 108 102 104 106 120 126 132 140 148 145 137 123 120 120 112 115 104 85 72 82 92 83 42 84 58 36 71 21 35 48 41 35 15 60 27 21 11 5 339 351 6 11 7
167 162 139 135 126 117 117 115 114 117 125 131 139 145 143 137 135 125 127 129 123 122 110 101 90 87 97 95 76 71 97 81 50 21 50 50 51 47 18 39 35 21 14 6 355 9 7 13 22
172 167 157 148 145 144 131 121 122 134 136 140 147 147 140 141 133 131 130 124 119 109 98 90 88 79 71 63 60 73 64 63 51 22 28 47 46 52 36 23 28 13 14 18 14 12 8 25 33
195 198 192 187 164 164 150 141 136 145 148 150 152 145 144 143 142 131 126 117 114 109 107 97 87 85 79 69 53 63 56 54 57 39 19 26 34 53 40 20 23 26 19 13 28 17 19 22 28
207 208 194 182 180 180 164 147 154 168 158 160 159 152 156 158 148 135 130 118 110 113 118 111 95 93 92 99 86 73 74 52 60 53 26 16 20 39 44 24 26 31 29 20 29 26 21 20 18
205 205 196 178 182 190 169 160 161 170 168 173 166 162 167 167 155 139 126 107 102 107 108 102 97 100 104 100 97 80 62 60 58 62 40 22 25 32 29 35 33 23 29 29 33 20 19 16 10
235 213 202 171 175 179 176 167 169 172 177 175 175 176 176 168 153 138 133 131 129 125 120 126 134 121 111 94 95 94 85 77 69 72 41 37 34 30 40 35 36 30 32 33 37 18 18 18 24
235 214 184 149 159 169 178 182 179 184 192 180 186 184 176 166 150 145 153 151 142 142 144 136 122 112 103 78 101 104 93 95 92 75 59 50 39 23 29 31 35 47 41 29 33 35 15 6 31
224 216 201 161 170 195 182 194 194 198 198 191 189 191 186 172 158 159 161 146 143 155 146 125 118 117 111 95 75 83 83 79 86 83 61 56 53 38 24 19 24 41 49 38 36 33 36 18 13
220 216 216 179 175 205 202 201 205 199 199 201 195 192 189 175 161 162 156 148 154 155 142 128 125 121 113 115 92 104 101 94 99 105 113 98 74 58 35 24 24 40 44 38 33 30 27 35 17
212 230 234 204 208 238 225 218 210 194 198 202 204 197 183 172 163 161 155 154 150 140 126 116 117 113 110 109 102 79 89 102 96 89 85 92 80 69 48 33 35 49 49 52 49 37 29 35 31
176 195 229 229 228 239 230 225 209 195 198 196 198 197 182 173 164 158 149 141 136 128 121 116 113 115 120 131 138 123 102 96 95 90 90 92 99 78 60 42 37 51 49 46 43 48 47 38 33
199 190 200 202 211 233 223 224 222 197 195 192 190 189 177 169 162 154 148 148 144 143 143 137 133 133 142 157 154 148 148 136 118 110 100 85 94 85 69 54 46 47 45 44 36 43 52 48 46
207 210 214 222 220 227 218 220 215 192 189 186 181 177 169 169 164 156 154 154 151 151 153 150 146 146 154 163 157 136 118 95 90 86 94 83 82 87 84 67 62 48 41 49 37 38 40 44 44
212 220 235 272 283 254 232 213 163 180 180 177 174 171 168 167 163 157 155 157 154 154 155 154 151 151 154 155 137 118 120 108 102 88 77 84 88 92 86 88 83 62 43 44 41 45 37 44 41
226 216 221 228 254 238 216 209 183 177 177 173 170 169 163 163 162 159 158 158 155 152 153 154 156 154 153 151 145 134 114 100 88 83 70 79 89 87 93 93 102 94 75 65 50 42 30 46 53
205 218 224 230 242 272 270 263 235 174 172 172 170 166 161 162 162 158 157 156 151 150 154 160 159 151 151 150 146 140 126 118 114 94 83 66 105 120 106 77 91 97 82 76 63 46 37 34 42
219 219 218 225 248 252 250 275 282 177 165 166 167 163 161 158 155 154 154 155 154 157 163 166 159 154 155 154 151 145 133 135 131 125 133 143 94 102 105 83 73 80 75 74 70 51 44 46 44